Buffalo, NY

3:09 AM EST on November 19, 2019 (GMT -0500)
Buffalo Niagara International

Weather History for KBUF - September, 2019

Change the Weather History Date:

Sunday, September 15, 2019

  Actual Average Record
Temperature  
Mean Temperature 64 °F 63 °F  
Max Temperature 71 °F 72 °F 86 °F (1903)
Min Temperature 57 °F 54 °F 39 °F (1964)
Degree Days  
Heating Degree Days 1 4  
Month to date heating degree days 18 39  
Since 1 July heating degree days 21 66  
Cooling Degree Days 0 2  
Month to date cooling degree days 24 39  
Year to date cooling degree days 569 526  
Growing Degree Days 14 (Base 50)    
Moisture  
Dew Point 58 °F    
Average Humidity 77    
Maximum Humidity 93    
Minimum Humidity 61    
Precipitation  
Precipitation 0.01 in 0.13 in 1.57 in (1940)
Month to date precipitation 4.47 1.78  
Year to date precipitation 32.84 26.94  
Snow  
Snow 0.00 in 0.00 in 0.00 in ()
Month to date snowfall 0.0 0.0  
Since 1 July snowfall 0.0 0.0  
Since 1 September snowfall 0.0 0.0  
Snow Depth 0.00 in    
Sea Level Pressure  
Sea Level Pressure 30.14 in    
Wind  
Wind Speed 6 mph (SW)    
Max Wind Speed 14 mph    
Max Gust Speed 17 mph    
Visibility 10 miles    
Events Rain    
T = Trace of Precipitation, MM = Missing Value Source: NWS Daily Summary

Daily Weather History Graph

Daily Weather History Graph

Search for Another Location

Airport or City:

Astronomy

Sep. 15, 2019 Rise Set
Actual Time 6:54 AM EDT 7:25 PM EDT
Civil Twilight 6:25 AM EDT 7:53 PM EDT
Nautical Twilight 5:52 AM EDT 8:27 PM EDT
Astronomical Twilight 5:17 AM EDT 9:01 PM EDT
Moon 8:30 PM EDT (9/15) 8:03 AM EDT (9/15)
Length of Visible Light 13h 27m
Length of Day
12h 30m
Full, 98% of the Moon is Illuminated
Sep 15
Full
Sep 21
Last Quarter
Sep 28
New
Oct 5
First Quarter
Oct 13
Full

Hourly Weather History & Observations

Time (EDT) Temp. Dew Point Humidity Pressure Visibility Wind Dir Wind Speed Gust Speed Precip Events Conditions
12:54 AM 60.1 °F 57.0 °F 90% 30.18 in 10.0 mi South 6.9 mph - N/A   Partly Cloudy
1:54 AM 59.0 °F 55.9 °F 90% 30.18 in 10.0 mi South 6.9 mph - N/A   Partly Cloudy
2:54 AM 57.9 °F 55.0 °F 90% 30.17 in 10.0 mi SSW 5.8 mph - N/A   Partly Cloudy
3:54 AM 57.9 °F 55.9 °F 93% 30.16 in 10.0 mi SSW 5.8 mph - N/A   Partly Cloudy
4:54 AM 57.0 °F 55.0 °F 93% 30.16 in 10.0 mi SSW 6.9 mph - N/A   Partly Cloudy
5:54 AM 57.0 °F 55.0 °F 93% 30.16 in 10.0 mi South 4.6 mph - N/A   Partly Cloudy
6:54 AM 57.9 °F 55.0 °F 90% 30.17 in 10.0 mi SSE 4.6 mph - N/A   Partly Cloudy
7:54 AM 59.0 °F 55.9 °F 90% 30.17 in 10.0 mi South 5.8 mph - N/A   Partly Cloudy
8:54 AM 64.0 °F 57.9 °F 80% 30.17 in 10.0 mi SSW 6.9 mph - N/A   Mostly Cloudy
9:54 AM 69.1 °F 61.0 °F 75% 30.17 in 10.0 mi West 9.2 mph - N/A   Mostly Cloudy
10:01 AM 69.1 °F 60.1 °F 73% 30.16 in 10.0 mi WSW 10.4 mph - N/A   Mostly Cloudy
10:28 AM 69.1 °F 61.0 °F 75% 30.16 in 10.0 mi WSW 9.2 mph - N/A   Mostly Cloudy
10:54 AM 70.0 °F 60.1 °F 71% 30.16 in 10.0 mi WSW 9.2 mph - N/A   Mostly Cloudy
11:54 AM 70.0 °F 59.0 °F 68% 30.15 in 10.0 mi WSW 9.2 mph - N/A   Mostly Cloudy
12:54 PM 69.1 °F 57.9 °F 68% 30.17 in 10.0 mi West 12.7 mph - N/A   Overcast
1:54 PM 69.1 °F 57.0 °F 65% 30.16 in 10.0 mi WSW 9.2 mph - 0.00 in Rain Light Rain
2:54 PM 69.1 °F 55.9 °F 63% 30.13 in 10.0 mi WSW 6.9 mph - 0.00 in   Overcast
3:54 PM 70.0 °F 55.0 °F 59% 30.12 in 10.0 mi West 4.6 mph - N/A   Mostly Cloudy
4:54 PM 69.1 °F 59.0 °F 70% 30.10 in 10.0 mi SW 6.9 mph - N/A   Overcast
5:54 PM 69.1 °F 60.1 °F 73% 30.09 in 10.0 mi WSW 3.5 mph - N/A   Overcast
6:46 PM 66.9 °F 61.0 °F 81% 30.09 in 10.0 mi NE 4.6 mph - N/A   Mostly Cloudy
6:54 PM 66.9 °F 61.0 °F 81% 30.09 in 10.0 mi NE 6.9 mph - N/A   Mostly Cloudy
7:54 PM 66.0 °F 61.0 °F 84% 30.09 in 10.0 mi ESE 3.5 mph - N/A   Mostly Cloudy
8:19 PM 66.9 °F 62.1 °F 84% 30.09 in 10.0 mi ENE 3.5 mph - N/A   Overcast
8:54 PM 64.9 °F 61.0 °F 87% 30.09 in 10.0 mi NNE 4.6 mph - N/A   Overcast
9:54 PM 64.0 °F 60.1 °F 87% 30.09 in 10.0 mi North 4.6 mph - N/A   Overcast
10:54 PM 63.0 °F 60.1 °F 90% 30.10 in 10.0 mi Calm Calm - N/A   Overcast
11:54 PM 63.0 °F 59.0 °F 87% 30.10 in 10.0 mi Calm Calm - N/A   Overcast